Date String (YYYY-MM-DD hh:mm:ss) UTC,Instrument flags,Ambient pressure (hPa),Sample flow (lpm),Bypass flow (lpm),Sample temperature (°C),Ambient temperature (°C),ASC tube jacket temperature (°C),LED temperature (°C),Box temperature (°C),Sample RH (%),Span deviation,Mass concentration (μg/m³),Mass concentration (μg/m³),Mass concentration (μg/m³)
DateTimeUTC,F1_M11,P_M11,Q1_M11,Q2_M11,T1_M11,T2_M11,T3_M11,T4_M11,T5_M11,U1_M11,ZSPAN_M11,X0_M11,X2_M11,X1_M11
2021-08-29 07:00:00,,0833.6,5.00,0.00,29.5,28.0,00.0,38.7,31.3,26.2,0002.3,0019.86,0013.32,0012.51
2021-08-29 07:01:00,,0833.7,5.00,0.00,29.6,28.2,00.0,38.7,31.3,26.2,0002.4,0019.80,0013.34,0012.50
2021-08-29 07:02:00,,0833.6,4.99,0.00,29.6,28.4,00.0,38.7,31.4,26.2,0002.3,0019.77,0013.32,0012.48
2021-08-29 07:03:00,,0833.6,5.00,0.00,29.6,28.5,00.0,38.7,31.4,26.2,0002.5,0019.49,0013.28,0012.44
2021-08-29 07:04:00,,0833.7,5.02,0.00,29.7,28.6,00.0,38.7,31.5,26.2,0002.5,0019.11,0013.20,0012.41
2021-08-29 07:05:00,,0833.6,4.99,0.00,29.7,28.7,00.0,38.7,31.5,26.2,0002.3,0018.96,0013.14,0012.38
2021-08-29 07:06:00,,0833.6,5.00,0.00,29.7,28.8,00.0,38.7,31.5,26.2,0002.1,0019.18,0013.13,0012.35
2021-08-29 07:07:00,,0833.6,5.01,0.00,29.8,28.9,00.0,38.8,31.6,26.0,0002.2,0019.75,0013.13,0012.35
2021-08-29 07:08:00,,0833.6,5.00,0.00,29.8,29.0,00.0,38.8,31.6,26.0,0002.3,0019.37,0013.10,0012.34
2021-08-29 07:09:00,,0833.6,5.00,0.00,29.8,29.0,00.0,38.8,31.7,26.0,0002.3,0019.20,0013.04,0012.30
2021-08-29 07:10:00,,0833.6,5.01,0.00,29.8,28.9,00.0,38.8,31.7,25.9,0002.5,0018.93,0012.97,0012.26
2021-08-29 07:11:00,,0833.6,5.01,0.00,29.8,27.2,00.0,38.8,31.2,26.0,0002.5,0019.05,0012.98,0012.23
2021-08-29 07:12:00,,0833.6,5.01,0.00,29.6,26.3,00.0,38.8,31.0,26.3,0002.4,0018.76,0012.97,0012.21
2021-08-29 07:13:00,,0833.6,4.99,0.00,29.5,26.5,00.0,38.8,31.0,26.2,0002.3,0018.73,0012.97,0012.17
2021-08-29 07:14:00,,0833.6,5.01,0.00,29.5,26.9,00.0,38.7,31.0,26.3,0002.0,0018.10,0012.94,0012.15
2021-08-29 07:15:00,,0833.7,4.99,0.00,29.5,27.3,00.0,38.7,31.1,26.4,0002.0,0018.25,0012.97,0012.12
2021-08-29 07:16:00,,0833.7,5.01,0.00,29.5,27.6,00.0,38.7,31.2,26.4,0002.0,0018.43,0012.98,0012.10
2021-08-29 07:17:00,,0833.6,5.00,0.00,29.5,27.9,00.0,38.7,31.2,26.3,0002.2,0018.35,0012.96,0012.09
2021-08-29 07:18:00,,0833.6,5.00,0.00,29.5,28.1,00.0,38.7,31.3,26.3,0002.0,0017.59,0012.91,0012.04
2021-08-29 07:19:00,,0833.7,5.00,0.00,29.6,28.3,00.0,38.7,31.3,26.3,0001.8,0017.22,0012.83,0011.99
2021-08-29 07:20:00,,0833.6,5.00,0.00,29.6,28.5,00.0,38.7,31.4,26.4,0001.7,0017.06,0012.78,0011.98
2021-08-29 07:21:00,,0833.6,4.99,0.00,29.6,28.6,00.0,38.7,31.4,26.0,0001.5,0017.07,0012.78,0011.96
2021-08-29 07:22:00,,0833.7,5.01,0.00,29.7,28.7,00.0,38.7,31.5,26.1,0001.4,0016.97,0012.73,0011.91
2021-08-29 07:23:00,,0833.7,4.99,0.00,29.7,28.8,00.0,38.7,31.5,26.1,0001.4,0016.92,0012.69,0011.88
2021-08-29 07:24:00,,0833.6,5.00,0.00,29.7,28.8,00.0,38.7,31.6,25.9,0001.5,0016.94,0012.64,0011.84
2021-08-29 07:25:00,,0833.7,5.00,0.00,29.8,28.9,00.0,38.8,31.6,25.9,0001.6,0017.24,0012.61,0011.81
2021-08-29 07:26:00,,0833.7,5.01,0.00,29.8,29.0,00.0,38.8,31.7,26.0,0001.6,0017.49,0012.61,0011.80
2021-08-29 07:27:00,,0833.6,5.00,0.00,29.8,29.0,00.0,38.8,31.7,26.0,0001.8,0017.37,0012.60,0011.79
2021-08-29 07:28:00,,0833.6,5.00,0.00,29.9,29.0,00.0,38.8,31.7,25.8,0001.9,0017.48,0012.62,0011.78
2021-08-29 07:29:00,,0833.6,5.01,0.00,29.8,27.5,00.0,38.8,31.3,25.9,0002.1,0017.65,0012.61,0011.77
2021-08-29 07:30:00,,0833.6,4.99,0.00,29.7,26.4,00.0,38.8,31.0,26.1,0002.1,0017.83,0012.65,0011.78
2021-08-29 07:31:00,,0833.6,5.02,0.00,29.6,26.5,00.0,38.8,31.0,26.1,0002.2,0017.83,0012.64,0011.77
2021-08-29 07:32:00,,0833.6,4.99,0.00,29.5,26.9,00.0,38.7,31.0,26.3,0002.1,0017.74,0012.59,0011.75
2021-08-29 07:33:00,,0833.6,5.00,0.00,29.5,27.3,00.0,38.7,31.1,26.3,0002.1,0017.83,0012.56,0011.74
2021-08-29 07:34:00,,0833.6,5.00,0.00,29.5,27.6,00.0,38.7,31.2,26.3,0002.2,0017.83,0012.52,0011.72
2021-08-29 07:35:00,,0833.6,5.00,0.00,29.5,27.9,00.0,38.7,31.3,26.3,0002.2,0017.78,0012.52,0011.71
2021-08-29 07:36:00,,0833.6,5.00,0.00,29.5,28.1,00.0,38.7,31.3,26.4,0002.3,0017.42,0012.49,0011.69
2021-08-29 07:37:00,,0833.6,5.00,0.00,29.6,28.3,00.0,38.7,31.4,26.3,0002.1,0016.97,0012.41,0011.65
2021-08-29 07:38:00,,0833.6,4.98,0.00,29.6,28.4,00.0,38.7,31.4,26.3,0002.0,0016.90,0012.39,0011.62
2021-08-29 07:39:00,,0833.5,5.01,0.00,29.6,28.5,00.0,38.7,31.4,26.2,0001.9,0017.07,0012.35,0011.60
2021-08-29 07:40:00,,0833.6,5.00,0.00,29.7,28.6,00.0,38.7,31.5,26.2,0001.7,0017.26,0012.31,0011.59
2021-08-29 07:41:00,,0833.5,4.99,0.00,29.7,28.7,00.0,38.7,31.5,26.1,0001.6,0017.97,0012.28,0011.54
2021-08-29 07:42:00,,0833.5,5.00,0.00,29.7,28.8,00.0,38.7,31.6,26.1,0001.7,0017.95,0012.24,0011.51
2021-08-29 07:43:00,,0833.5,5.01,0.00,29.8,28.9,00.0,38.8,31.6,26.1,0002.0,0018.09,0012.24,0011.50
2021-08-29 07:44:00,,0833.5,5.00,0.00,29.8,28.9,00.0,38.8,31.6,26.1,0002.0,0017.96,0012.24,0011.48
2021-08-29 07:45:00,,0833.5,5.00,0.00,29.8,29.0,00.0,38.8,31.7,25.9,0002.1,0017.86,0012.23,0011.47
2021-08-29 07:46:00,,0833.5,5.00,0.00,29.9,29.0,00.0,38.8,31.7,25.8,0002.0,0018.06,0012.20,0011.47
2021-08-29 07:47:00,,0833.4,5.01,0.00,29.9,29.1,00.0,38.9,31.7,25.7,0001.9,0018.22,0012.25,0011.48
2021-08-29 07:48:00,,0833.4,5.01,0.00,29.9,27.8,00.0,38.9,31.4,25.8,0002.1,0018.23,0012.23,0011.46
2021-08-29 07:49:00,,0833.4,4.99,0.00,29.7,26.4,00.0,38.8,31.0,26.1,0002.1,0018.12,0012.17,0011.44
2021-08-29 07:50:00,,0833.4,5.01,0.00,29.6,26.3,00.0,38.8,31.0,26.3,0001.9,0017.54,0012.14,0011.40
2021-08-29 07:51:00,,0833.4,5.00,0.00,29.5,26.7,00.0,38.8,31.1,26.4,0001.9,0017.56,0012.15,0011.39
2021-08-29 07:52:00,,0833.4,4.99,0.00,29.5,27.1,00.0,38.7,31.1,26.4,0002.0,0017.32,0012.17,0011.39
2021-08-29 07:53:00,,0833.3,5.01,0.00,29.5,27.5,00.0,38.7,31.2,26.5,0001.9,0017.38,0012.19,0011.38
2021-08-29 07:54:00,,0833.4,5.01,0.00,29.5,27.8,00.0,38.7,31.3,26.4,0001.8,0017.28,0012.19,0011.37
2021-08-29 07:55:00,,0833.4,4.99,0.00,29.5,28.0,00.0,38.7,31.3,26.4,0001.5,0017.23,0012.17,0011.40
2021-08-29 07:56:00,,0833.5,5.02,0.00,29.6,28.2,00.0,38.7,31.3,26.4,0001.2,0017.46,0012.20,0011.41
2021-08-29 07:57:00,,0833.4,5.00,0.00,29.6,28.4,00.0,38.7,31.4,26.3,0001.3,0017.74,0012.21,0011.42
2021-08-29 07:58:00,,0833.4,5.00,0.00,29.6,28.5,00.0,38.7,31.4,26.3,0001.2,0017.61,0012.13,0011.41
2021-08-29 07:59:00,,0833.4,5.00,0.00,29.7,28.6,00.0,38.7,31.5,26.2,0001.3,0017.97,0012.15,0011.44
